QPF
0.00 0.00 0.00 0.00 0.00 0.00 0.00 0.00 0.00 0.00 0.00 0.00 0.00 0.00 0.00 0.00 0.00 0.00 0.00 0.00 0.00 0.00 0.00 0.00 0.00 0.00 0.00 0.00 0.00 0.00 0.00 0.00 0.00 0.00 0.00 0.00 0.00 0.00 0.00 0.00 0.00 0.00 0.00 0.00
0.00 0.00 0.00 0.00 0.00 0.00 0.00 0.00 0.00 0.00 0.00 0.00 0.00 0.00 0.00 0.00 0.00 0.00 0.00 0.00 0.00 0.00 0.00 0.00 0.00 0.00 0.00 0.00 0.00 0.00 0.00 0.00 0.00 0.00 0.00 0.00 0.00 0.00 0.00 0.00 0.00 0.00 0.00 0.00
0.00 0.00 0.00 0.00 0.00 0.00 0.00 0.00 0.00 0.00 0.00 0.00 0.00 0.00 0.00 0.00 0.00 0.00 0.00 0.00 0.00 0.00 0.00 0.00 0.00 0.00 0.00 0.00 0.00 0.00 0.00 0.00 0.00 0.00 0.00 0.00 0.00 0.00 0.00 0.00 0.00 0.00 0.00 0.00
0.00 0.00 0.00 0.00 0.00 0.00 0.00 0.00 0.00 0.00 0.00 0.00 0.00 0.00 0.00 0.00 0.00 0.00 0.00 0.00 0.00 0.00 0.00 0.00 0.00 0.00 0.00 0.00 0.00 0.00 0.00 0.00 0.00 0.00 0.00 0.00 0.00 0.00 0.00 0.00 0.00 0.00 0.00 0.00
0.00 0.00 0.00 0.00 0.00 0.00 0.00 0.00 0.00 0.00 0.00 0.00 0.00 0.00 0.00 0.00 0.00 0.00 0.00 0.00 0.00 0.00 0.00 0.00 0.00 0.00 0.00 0.00 0.00 0.00 0.00 0.00 0.00 0.00 0.00 0.00 0.00 0.00 0.00 0.00 0.00 0.00 0.00 0.00
0.00 0.00 0.00 0.00 0.00 0.00 0.00 0.00 0.00 0.00 0.00 0.00 0.00 0.00 0.00 0.00 0.00 0.00 0.00 0.00 0.00 0.00 0.00 0.00 0.00 0.00 0.00 0.00 0.00 0.00 0.00 0.00 0.00 0.00 0.00 0.00 0.00 0.00 0.00 0.00 0.00 0.00 0.00 0.00
0.00 0.00 0.00 0.00 0.00 0.00 0.00 0.00 0.00 0.00 0.00 0.00 0.00 0.00 0.00 0.00 0.00 0.00 0.00 0.00 0.00 0.00 0.00 0.00 0.00 0.00 0.00 0.00 0.00 0.00 0.00 0.00 0.00 0.00 0.00 0.00 0.00 0.00 0.00 0.00 0.00 0.00 0.00 0.00
0.00 0.00 0.00 0.00 0.00 0.00 0.00 0.00 0.00 0.00 0.00 0.00 0.00 0.00 0.00 0.00 0.00 0.00 0.00 0.00 0.00 0.00 0.00 0.00 0.00 0.00 0.00 0.00 0.00 0.00 0.00 0.00 0.00 0.00 0.00 0.00 0.00 0.00 0.00 0.00 0.00 0.00 0.00 0.00
0.00 0.00 0.00 0.00 0.00 0.00 0.00 0.00 0.00 0.00 0.00 0.00 0.00 0.00 0.00 0.00 0.00 0.00 0.00 0.00 0.00 0.00 0.00 0.00 0.00 0.00 0.00 0.00 0.00 0.00 0.00 0.00 0.00 0.00 0.00 0.00 0.00 0.00 0.00 0.00 0.00 0.00 0.00 0.00
0.00 0.00 0.00 0.00 0.00 0.00 0.00 0.00 0.00 0.00 0.00 0.00 0.00 0.00 0.00 0.00 0.00 0.00 0.00 0.00 0.00 0.00 0.00 0.00 0.00 0.00 0.00 0.00 0.00 0.00 0.00 0.00 0.00 0.00 0.00 0.00 0.00 0.00 0.00 0.00 0.00 0.00 0.00 0.01
0.00 0.00 0.00 0.00 0.00 0.00 0.00 0.00 0.00 0.00 0.00 0.00 0.00 0.00 0.00 0.00 0.00 0.00 0.00 0.00 0.00 0.00 0.00 0.00 0.00 0.00 0.00 0.00 0.00 0.00 0.00 0.00 0.00 0.00 0.00 0.00 0.00 0.00 0.00 0.00 0.00 0.01 0.01 0.01
0.00 0.00 0.00 0.00 0.00 0.00 0.00 0.00 0.00 0.00 0.00 0.00 0.00 0.00 0.00 0.00 0.00 0.00 0.00 0.00 0.00 0.00 0.00 0.00 0.00 0.00 0.00 0.00 0.00 0.00 0.00 0.00 0.00 0.00 0.00 0.00 0.00 0.00 0.00 0.00 0.00 0.01 0.01 0.01
0.00 0.00 0.00 0.00 0.00 0.00 0.00 0.00 0.00 0.00 0.00 0.00 0.00 0.00 0.00 0.00 0.00 0.00 0.00 0.00 0.00 0.00 0.00 0.00 0.00 0.00 0.00 0.00 0.00 0.00 0.00 0.00 0.00 0.00 0.01 0.01 0.01 0.01 0.01 0.00 0.00 0.00 0.01 0.01
0.00 0.00 0.00 0.00 0.00 0.00 0.00 0.00 0.00 0.00 0.00 0.00 0.00 0.00 0.00 0.00 0.00 0.00 0.00 0.00 0.00 0.00 0.00 0.00 0.00 0.00 0.00 0.00 0.00 0.00 0.00 0.00 0.01 0.01 0.01 0.01 0.01 0.01 0.01 0.02 0.01 0.01 0.01 0.00
0.00 0.00 0.00 0.00 0.00 0.00 0.00 0.00 0.00 0.00 0.00 0.00 0.00 0.00 0.00 0.00 0.00 0.00 0.00 0.00 0.00 0.00 0.00 0.00 0.00 0.00 0.00 0.00 0.00 0.00 0.00 0.00 0.01 0.01 0.01 0.01 0.01 0.01 0.02 0.02 0.02 0.01 0.01 0.01
0.00 0.00 0.00 0.00 0.00 0.00 0.00 0.00 0.00 0.00 0.00 0.00 0.00 0.00 0.00 0.00 0.00 0.00 0.00 0.00 0.00 0.00 0.00 0.00 0.00 0.00 0.00 0.00 0.00 0.00 0.00 0.01 0.01 0.01 0.01 0.01 0.01 0.02 0.02 0.02 0.02 0.02 0.02 0.02
0.00 0.00 0.00 0.00 0.00 0.00 0.00 0.00 0.00 0.00 0.00 0.00 0.00 0.00 0.00 0.00 0.00 0.00 0.00 0.00 0.00 0.00 0.00 0.00 0.00 0.00 0.00 0.00 0.01 0.01 0.01 0.01 0.01 0.01 0.02 0.02 0.02 0.02 0.02 0.03 0.03 0.03 0.03 0.02
0.00 0.00 0.00 0.00 0.00 0.00 0.00 0.00 0.00 0.00 0.00 0.00 0.00 0.00 0.00 0.00 0.00 0.00 0.00 0.00 0.00 0.00 0.00 0.00 0.00 0.00 0.00 0.00 0.00 0.01 0.01 0.01 0.02 0.02 0.02 0.02 0.02 0.02 0.02 0.03 0.03 0.03 0.02 0.01
0.00 0.00 0.00 0.00 0.00 0.00 0.00 0.00 0.00 0.00 0.00 0.00 0.00 0.00 0.00 0.00 0.00 0.00 0.00 0.00 0.00 0.00 0.00 0.00 0.00 0.00 0.00 0.00 0.01 0.01 0.02 0.02 0.02 0.02 0.02 0.02 0.02 0.02 0.02 0.03 0.03 0.02 0.02 0.02
0.00 0.00 0.00 0.00 0.00 0.00 0.00 0.00 0.00 0.00 0.00 0.00 0.00 0.00 0.00 0.00 0.00 0.00 0.00 0.00 0.00 0.00 0.00 0.00 0.00 0.00 0.00 0.00 0.01 0.02 0.02 0.02 0.02 0.02 0.02 0.02 0.02 0.02 0.02 0.03 0.02 0.02 0.02 0.02
0.00 0.00 0.00 0.00 0.00 0.00 0.00 0.00 0.00 0.00 0.00 0.00 0.00 0.00 0.00 0.00 0.00 0.00 0.00 0.00 0.00 0.00 0.00 0.00 0.00 0.00 0.01 0.02 0.03 0.02 0.02 0.02 0.02 0.02 0.03 0.03 0.03 0.03 0.03 0.02 0.02 0.02 0.02 0.02
0.00 0.00 0.00 0.00 0.00 0.00 0.00 0.00 0.00 0.00 0.00 0.00 0.00 0.00 0.00 0.00 0.00 0.00 0.00 0.00 0.00 0.00 0.00 0.00 0.00 0.01 0.02 0.03 0.02 0.02 0.02 0.02 0.02 0.03 0.03 0.03 0.03 0.03 0.03 0.02 0.02 0.02 0.02 0.02
0.00 0.00 0.00 0.00 0.00 0.00 0.00 0.00 0.00 0.00 0.00 0.00 0.00 0.00 0.00 0.00 0.00 0.00 0.00 0.00 0.00 0.00 0.00 0.00 0.01 0.01 0.02 0.02 0.01 0.02 0.02 0.02 0.03 0.03 0.03 0.03 0.03 0.03 0.03 0.02 0.02 0.02 0.02 0.02
0.00 0.00 0.00 0.00 0.00 0.00 0.00 0.00 0.00 0.00 0.00 0.00 0.00 0.00 0.00 0.00 0.00 0.00 0.00 0.00 0.00 0.00 0.00 0.00 0.01 0.01 0.02 0.01 0.01 0.02 0.02 0.03 0.03 0.03 0.03 0.03 0.03 0.03 0.02 0.03 0.03 0.02 0.02 0.02
0.00 0.00 0.00 0.00 0.00 0.00 0.00 0.00 0.00 0.00 0.00 0.00 0.00 0.00 0.00 0.00 0.00 0.00 0.00 0.00 0.00 0.00 0.00 0.00 0.01 0.01 0.01 0.01 0.02 0.02 0.02 0.03 0.03 0.03 0.03 0.03 0.03 0.03 0.03 0.03 0.02 0.02 0.01 0.01
0.00 0.00 0.00 0.00 0.00 0.00 0.00 0.00 0.00 0.00 0.00 0.00 0.00 0.00 0.00 0.00 0.00 0.00 0.00 0.00 0.00 0.00 0.00 0.00 0.00 0.01 0.01 0.02 0.02 0.02 0.02 0.03 0.03 0.03 0.03 0.03 0.03 0.03 0.03 0.02 0.02 0.02 0.01 0.01
0.00 0.00 0.00 0.00 0.00 0.00 0.00 0.00 0.00 0.00 0.00 0.00 0.00 0.00 0.00 0.00 0.00 0.00 0.00 0.00 0.00 0.00 0.00 0.00 0.01 0.01 0.01 0.02 0.02 0.02 0.02 0.03 0.03 0.03 0.03 0.03 0.03 0.03 0.03 0.02 0.02 0.01 0.01 0.01
MSLP
1018.81 1018.97 1019.10 1019.19 1019.23 1019.17 1019.01 1018.74 1018.35 1017.87 1017.34 1016.80 1016.31 1015.90 1015.61 1015.44 1015.38 1015.39 1015.44 1015.48 1015.47 1015.38 1015.21 1014.97 1014.66 1014.32 1013.97 1013.63 1013.29 1012.95 1012.59 1012.21 1011.79 1011.32 1010.79 1010.23 1009.66 1009.08 1008.53 1008.01 1007.52 1007.05 1006.61 1006.17
1018.92 1018.95 1018.92 1018.83 1018.69 1018.49 1018.22 1017.89 1017.50 1017.09 1016.67 1016.28 1015.94 1015.68 1015.51 1015.42 1015.40 1015.41 1015.42 1015.42 1015.36 1015.23 1015.04 1014.79 1014.50 1014.18 1013.84 1013.49 1013.13 1012.75 1012.34 1011.88 1011.38 1010.82 1010.23 1009.61 1008.99 1008.39 1007.82 1007.28 1006.78 1006.31 1005.84 1005.37
1019.04 1018.95 1018.78 1018.55 1018.26 1017.93 1017.58 1017.21 1016.84 1016.49 1016.17 1015.89 1015.69 1015.54 1015.45 1015.41 1015.41 1015.40 1015.38 1015.32 1015.21 1015.05 1014.83 1014.58 1014.29 1013.97 1013.64 1013.27 1012.88 1012.45 1011.97 1011.43 1010.85 1010.21 1009.55 1008.89 1008.24 1007.63 1007.05 1006.53 1006.03 1005.56 1005.09 1004.61
1019.14 1018.96 1018.69 1018.35 1017.97 1017.57 1017.17 1016.79 1016.44 1016.15 1015.91 1015.73 1015.61 1015.53 1015.50 1015.48 1015.45 1015.41 1015.34 1015.22 1015.05 1014.85 1014.61 1014.33 1014.04 1013.71 1013.36 1012.98 1012.54 1012.05 1011.49 1010.88 1010.21 1009.51 1008.80 1008.10 1007.43 1006.82 1006.27 1005.76 1005.29 1004.83 1004.36 1003.87
1019.16 1018.92 1018.60 1018.22 1017.80 1017.38 1016.97 1016.62 1016.32 1016.08 1015.91 1015.80 1015.73 1015.70 1015.67 1015.64 1015.57 1015.47 1015.33 1015.14 1014.91 1014.66 1014.37 1014.07 1013.75 1013.41 1013.03 1012.60 1012.12 1011.56 1010.93 1010.25 1009.51 1008.75 1008.00 1007.28 1006.61 1006.01 1005.48 1004.99 1004.54 1004.10 1003.64 1003.15
1019.05 1018.80 1018.48 1018.10 1017.70 1017.31 1016.96 1016.66 1016.42 1016.25 1016.14 1016.08 1016.05 1016.02 1015.97 1015.89 1015.77 1015.59 1015.37 1015.10 1014.80 1014.48 1014.15 1013.81 1013.45 1013.07 1012.65 1012.18 1011.64 1011.02 1010.33 1009.58 1008.79 1007.99 1007.20 1006.47 1005.80 1005.21 1004.69 1004.23 1003.79 1003.36 1002.90 1002.39
1018.81 1018.58 1018.29 1017.97 1017.64 1017.33 1017.05 1016.84 1016.68 1016.59 1016.53 1016.51 1016.49 1016.45 1016.36 1016.23 1016.03 1015.77 1015.45 1015.10 1014.72 1014.33 1013.93 1013.54 1013.14 1012.71 1012.25 1011.72 1011.13 1010.46 1009.71 1008.91 1008.08 1007.24 1006.44 1005.69 1005.03 1004.44 1003.92 1003.46 1003.02 1002.58 1002.10 1001.57
1018.46 1018.28 1018.06 1017.82 1017.58 1017.37 1017.21 1017.09 1017.02 1017.00 1016.99 1016.99 1016.97 1016.90 1016.77 1016.57 1016.29 1015.95 1015.54 1015.11 1014.65 1014.18 1013.73 1013.27 1012.81 1012.34 1011.82 1011.25 1010.61 1009.89 1009.11 1008.27 1007.40 1006.55 1005.72 1004.96 1004.28 1003.68 1003.15 1002.67 1002.21 1001.74 1001.23 1000.67
1018.07 1017.95 1017.80 1017.66 1017.53 1017.43 1017.37 1017.35 1017.37 1017.40 1017.44 1017.45 1017.42 1017.32 1017.14 1016.87 1016.52 1016.10 1015.61 1015.10 1014.57 1014.04 1013.51 1013.00 1012.49 1011.95 1011.39 1010.77 1010.09 1009.33 1008.52 1007.65 1006.77 1005.89 1005.05 1004.27 1003.57 1002.94 1002.38 1001.85 1001.35 1000.84 1000.29 999.70
1017.73 1017.66 1017.60 1017.54 1017.51 1017.51 1017.54 1017.60 1017.67 1017.75 1017.80 1017.81 1017.76 1017.62 1017.40 1017.07 1016.66 1016.17 1015.63 1015.05 1014.45 1013.86 1013.28 1012.71 1012.14 1011.56 1010.94 1010.28 1009.56 1008.78 1007.94 1007.06 1006.16 1005.27 1004.41 1003.61 1002.88 1002.21 1001.60 1001.03 1000.47 999.91 999.32 998.70
1017.52 1017.50 1017.49 1017.51 1017.55 1017.62 1017.71 1017.81 1017.91 1018.00 1018.05 1018.04 1017.95 1017.78 1017.50 1017.13 1016.68 1016.14 1015.55 1014.93 1014.29 1013.65 1013.02 1012.39 1011.77 1011.14 1010.48 1009.77 1009.02 1008.21 1007.36 1006.47 1005.56 1004.66 1003.79 1002.97 1002.20 1001.49 1000.83 1000.21 999.60 999.00 998.38 997.74
1017.48 1017.49 1017.53 1017.60 1017.68 1017.78 1017.89 1018.00 1018.09 1018.16 1018.17 1018.12 1017.99 1017.77 1017.46 1017.06 1016.57 1016.01 1015.39 1014.74 1014.07 1013.40 1012.72 1012.05 1011.37 1010.69 1009.98 1009.24 1008.46 1007.63 1006.76 1005.87 1004.96 1004.05 1003.17 1002.33 1001.54 1000.80 1000.10 999.44 998.80 998.17 997.54 996.90
1017.60 1017.64 1017.71 1017.79 1017.89 1017.99 1018.09 1018.17 1018.22 1018.23 1018.19 1018.09 1017.90 1017.64 1017.29 1016.86 1016.36 1015.79 1015.16 1014.50 1013.81 1013.10 1012.39 1011.68 1010.95 1010.21 1009.46 1008.67 1007.86 1007.01 1006.14 1005.24 1004.34 1003.44 1002.56 1001.72 1000.92 1000.16 999.45 998.77 998.11 997.48 996.85 996.23
1017.83 1017.89 1017.97 1018.05 1018.15 1018.23 1018.29 1018.32 1018.31 1018.25 1018.13 1017.96 1017.72 1017.41 1017.03 1016.59 1016.07 1015.50 1014.88 1014.21 1013.51 1012.78 1012.04 1011.28 1010.50 1009.71 1008.90 1008.08 1007.23 1006.37 1005.49 1004.60 1003.71 1002.83 1001.97 1001.15 1000.36 999.61 998.90 998.22 997.58 996.96 996.35 995.76
1018.09 1018.15 1018.24 1018.33 1018.40 1018.45 1018.46 1018.42 1018.34 1018.20 1018.01 1017.77 1017.48 1017.13 1016.73 1016.27 1015.76 1015.19 1014.57 1013.91 1013.20 1012.45 1011.67 1010.86 1010.03 1009.19 1008.33 1007.46 1006.58 1005.70 1004.82 1003.95 1003.09 1002.25 1001.43 1000.64 999.89 999.17 998.48 997.83 997.21 996.61 996.04 995.48
1018.28 1018.36 1018.45 1018.53 1018.58 1018.60 1018.56 1018.46 1018.31 1018.10 1017.85 1017.54 1017.20 1016.82 1016.40 1015.93 1015.42 1014.87 1014.26 1013.59 1012.87 1012.10 1011.28 1010.43 1009.55 1008.65 1007.74 1006.83 1005.93 1005.05 1004.18 1003.33 1002.51 1001.72 1000.95 1000.22 999.52 998.85 998.21 997.59 997.00 996.44 995.89 995.36
1018.37 1018.45 1018.55 1018.62 1018.65 1018.63 1018.55 1018.41 1018.20 1017.93 1017.62 1017.27 1016.90 1016.49 1016.06 1015.59 1015.09 1014.54 1013.93 1013.26 1012.53 1011.73 1010.88 1009.98 1009.05 1008.11 1007.16 1006.22 1005.30 1004.42 1003.57 1002.77 1002.00 1001.26 1000.57 999.90 999.27 998.65 998.06 997.49 996.93 996.39 995.87 995.35
1018.31 1018.40 1018.49 1018.56 1018.58 1018.53 1018.42 1018.24 1017.99 1017.68 1017.33 1016.96 1016.56 1016.14 1015.70 1015.24 1014.74 1014.20 1013.59 1012.92 1012.17 1011.34 1010.46 1009.52 1008.55 1007.57 1006.59 1005.63 1004.72 1003.85 1003.04 1002.28 1001.57 1000.91 1000.29 999.70 999.13 998.58 998.04 997.50 996.97 996.45 995.93 995.41
1018.13 1018.22 1018.30 1018.35 1018.35 1018.29 1018.15 1017.94 1017.66 1017.33 1016.97 1016.58 1016.17 1015.75 1015.32 1014.86 1014.37 1013.82 1013.22 1012.53 1011.77 1010.93 1010.01 1009.05 1008.05 1007.05 1006.05 1005.10 1004.20 1003.36 1002.60 1001.90 1001.26 1000.68 1000.13 999.61 999.10 998.61 998.10 997.60 997.09 996.56 996.04 995.51
1017.86 1017.93 1017.98 1018.01 1017.99 1017.91 1017.75 1017.52 1017.22 1016.89 1016.51 1016.12 1015.72 1015.31 1014.88 1014.43 1013.95 1013.41 1012.80 1012.11 1011.33 1010.48 1009.55 1008.57 1007.56 1006.55 1005.57 1004.63 1003.76 1002.97 1002.25 1001.62 1001.05 1000.54 1000.06 999.61 999.16 998.70 998.23 997.75 997.24 996.72 996.18 995.63
1017.54 1017.57 1017.59 1017.59 1017.53 1017.41 1017.23 1016.98 1016.68 1016.34 1015.97 1015.58 1015.19 1014.80 1014.38 1013.95 1013.47 1012.94 1012.34 1011.65 1010.87 1010.01 1009.08 1008.10 1007.10 1006.10 1005.14 1004.24 1003.41 1002.66 1002.01 1001.44 1000.93 1000.48 1000.07 999.66 999.26 998.84 998.39 997.91 997.41 996.89 996.34 995.78
1017.19 1017.17 1017.14 1017.09 1016.99 1016.83 1016.62 1016.35 1016.04 1015.70 1015.34 1014.97 1014.60 1014.22 1013.83 1013.41 1012.95 1012.43 1011.84 1011.16 1010.39 1009.54 1008.62 1007.66 1006.68 1005.71 1004.78 1003.92 1003.14 1002.45 1001.85 1001.33 1000.89 1000.48 1000.11 999.75 999.37 998.97 998.54 998.08 997.58 997.06 996.51 995.96
1016.81 1016.73 1016.64 1016.52 1016.37 1016.17 1015.93 1015.65 1015.33 1014.99 1014.64 1014.29 1013.95 1013.59 1013.23 1012.84 1012.40 1011.90 1011.32 1010.66 1009.91 1009.09 1008.19 1007.26 1006.32 1005.39 1004.51 1003.69 1002.96 1002.31 1001.76 1001.29 1000.87 1000.51 1000.17 999.82 999.47 999.09 998.67 998.22 997.73 997.23 996.70 996.16
1016.38 1016.24 1016.08 1015.91 1015.70 1015.46 1015.18 1014.88 1014.56 1014.23 1013.90 1013.57 1013.25 1012.93 1012.60 1012.23 1011.82 1011.35 1010.80 1010.17 1009.45 1008.66 1007.81 1006.92 1006.02 1005.14 1004.30 1003.53 1002.84 1002.24 1001.71 1001.27 1000.88 1000.53 1000.20 999.87 999.52 999.15 998.75 998.31 997.85 997.37 996.88 996.38
1015.88 1015.68 1015.46 1015.23 1014.97 1014.69 1014.39 1014.07 1013.75 1013.44 1013.13 1012.83 1012.54 1012.25 1011.95 1011.62 1011.24 1010.81 1010.29 1009.70 1009.02 1008.27 1007.47 1006.63 1005.78 1004.95 1004.16 1003.43 1002.77 1002.19 1001.69 1001.25 1000.87 1000.52 1000.19 999.86 999.52 999.15 998.77 998.35 997.92 997.48 997.03 996.58
1015.30 1015.04 1014.78 1014.50 1014.20 1013.89 1013.57 1013.25 1012.94 1012.64 1012.35 1012.08 1011.82 1011.57 1011.30 1011.01 1010.66 1010.26 1009.79 1009.24 1008.61 1007.91 1007.15 1006.37 1005.57 1004.79 1004.04 1003.34 1002.71 1002.15 1001.66 1001.22 1000.83 1000.48 1000.14 999.80 999.45 999.09 998.72 998.33 997.93 997.53 997.13 996.74
1014.65 1014.36 1014.06 1013.75 1013.43 1013.10 1012.77 1012.45 1012.15 1011.86 1011.59 1011.35 1011.12 1010.89 1010.65 1010.38 1010.08 1009.71 1009.27 1008.77 1008.18 1007.54 1006.84 1006.11 1005.37 1004.63 1003.92 1003.26 1002.65 1002.10 1001.61 1001.16 1000.76 1000.39 1000.03 999.68 999.33 998.97 998.61 998.25 997.89 997.53 997.17 996.83
Thickness
5612 5614 5612 5612 5614 5611 5601 5597 5593 5603 5607 5617 5615 5610 5603 5598 5593 5588 5583 5578 5573 5567 5561 5556 5552 5549 5545 5540 5536 5530 5524 5519 5515 5511 5506 5502 5498 5494 5490 5486 5482 5479 5476 5473
5607 5610 5605 5606 5615 5610 5606 5602 5598 5601 5604 5609 5604 5598 5592 5587 5583 5578 5572 5567 5562 5557 5551 5545 5540 5536 5532 5526 5521 5514 5508 5504 5500 5495 5491 5487 5483 5479 5475 5471 5467 5464 5460 5458
5587 5592 5594 5597 5612 5610 5607 5605 5600 5596 5598 5598 5593 5589 5584 5578 5573 5566 5561 5556 5550 5544 5537 5532 5527 5522 5516 5510 5504 5498 5492 5488 5483 5479 5475 5471 5468 5464 5460 5457 5454 5450 5447 5445
5572 5581 5577 5606 5614 5610 5605 5603 5600 5595 5591 5588 5584 5580 5575 5568 5562 5555 5549 5544 5538 5531 5525 5520 5514 5507 5500 5493 5487 5481 5476 5471 5467 5463 5460 5457 5453 5449 5446 5443 5440 5438 5436 5434
5558 5563 5572 5595 5605 5605 5600 5595 5591 5586 5581 5577 5572 5565 5559 5558 5551 5544 5539 5532 5524 5518 5511 5504 5497 5491 5483 5477 5471 5465 5461 5457 5453 5448 5445 5442 5439 5436 5434 5431 5429 5427 5424 5422
5547 5553 5560 5588 5598 5598 5591 5580 5579 5575 5570 5564 5558 5544 5544 5546 5539 5532 5525 5518 5511 5504 5496 5489 5482 5474 5467 5462 5456 5451 5448 5444 5439 5434 5431 5428 5426 5424 5422 5419 5418 5416 5414 5412
5543 5541 5560 5581 5585 5586 5571 5568 5568 5564 5558 5552 5543 5535 5534 5530 5523 5517 5510 5503 5497 5489 5480 5472 5465 5458 5451 5446 5441 5439 5435 5431 5427 5421 5417 5415 5413 5411 5409 5408 5407 5406 5404 5402
5533 5532 5552 5576 5576 5567 5562 5560 5556 5550 5545 5539 5532 5527 5521 5515 5508 5501 5495 5489 5482 5474 5466 5457 5448 5441 5438 5434 5431 5427 5422 5418 5414 5410 5405 5404 5401 5400 5398 5396 5396 5396 5394 5394
5554 5562 5566 5565 5560 5556 5552 5546 5542 5535 5530 5524 5518 5512 5506 5500 5493 5487 5480 5473 5465 5457 5451 5443 5434 5426 5422 5422 5418 5415 5410 5405 5402 5398 5395 5392 5389 5389 5388 5387 5385 5386 5385 5385
5549 5557 5556 5551 5546 5543 5539 5534 5529 5523 5517 5511 5503 5497 5491 5484 5477 5471 5465 5457 5449 5442 5435 5431 5424 5416 5410 5408 5405 5401 5397 5394 5391 5388 5386 5384 5381 5379 5378 5377 5377 5377 5377 5377
5542 5545 5542 5538 5533 5529 5525 5520 5515 5509 5504 5497 5491 5484 5477 5469 5463 5456 5449 5441 5433 5425 5420 5416 5413 5407 5401 5396 5392 5389 5386 5383 5381 5378 5376 5376 5374 5372 5371 5370 5368 5369 5370 5369
5535 5535 5528 5525 5524 5519 5513 5508 5502 5496 5490 5484 5476 5469 5463 5455 5447 5440 5433 5426 5419 5413 5408 5405 5401 5396 5391 5385 5380 5377 5375 5373 5371 5370 5369 5368 5367 5368 5367 5365 5366 5365 5364 5363
5525 5525 5518 5515 5510 5505 5499 5494 5488 5482 5475 5467 5461 5453 5446 5439 5432 5425 5417 5411 5406 5402 5397 5393 5389 5385 5380 5376 5371 5367 5364 5363 5363 5362 5361 5360 5360 5360 5362 5364 5361 5359 5359 5357
5512 5509 5505 5500 5493 5487 5482 5478 5472 5466 5459 5451 5444 5437 5430 5424 5417 5410 5404 5400 5395 5390 5385 5381 5378 5374 5370 5367 5364 5360 5358 5357 5357 5356 5354 5353 5353 5353 5353 5354 5355 5355 5353 5350
5498 5494 5488 5483 5477 5472 5467 5461 5455 5448 5442 5436 5429 5422 5415 5409 5404 5399 5393 5388 5383 5378 5374 5370 5367 5365 5362 5359 5356 5354 5352 5351 5351 5350 5349 5349 5348 5348 5347 5347 5347 5347 5346 5345
5484 5479 5473 5468 5461 5456 5450 5444 5437 5432 5427 5421 5415 5409 5403 5396 5391 5387 5382 5376 5371 5367 5364 5361 5358 5357 5354 5351 5350 5349 5347 5347 5347 5346 5345 5345 5344 5343 5343 5342 5341 5340 5339 5337
5470 5464 5459 5452 5445 5440 5434 5427 5421 5417 5411 5406 5402 5397 5391 5385 5382 5378 5374 5367 5361 5357 5353 5351 5350 5349 5347 5345 5343 5342 5342 5342 5343 5342 5341 5340 5340 5339 5338 5337 5336 5334 5332 5329
5456 5450 5444 5437 5430 5424 5420 5415 5409 5403 5398 5395 5390 5384 5378 5374 5371 5368 5364 5360 5355 5352 5348 5345 5343 5343 5342 5339 5337 5337 5337 5337 5337 5337 5337 5337 5336 5335 5334 5332 5330 5328 5326 5322
5441 5435 5429 5423 5416 5410 5405 5400 5396 5391 5386 5381 5377 5372 5368 5362 5358 5356 5353 5349 5345 5345 5346 5341 5340 5338 5336 5334 5334 5333 5333 5333 5334 5334 5333 5333 5332 5331 5329 5327 5325 5322 5319 5316
5424 5419 5413 5408 5403 5397 5392 5388 5384 5379 5375 5370 5365 5361 5358 5355 5350 5347 5344 5340 5337 5336 5337 5335 5334 5333 5331 5330 5330 5330 5329 5329 5330 5329 5329 5329 5328 5327 5325 5322 5319 5316 5314 5311
5408 5404 5399 5394 5391 5387 5382 5377 5372 5369 5366 5359 5354 5351 5350 5348 5343 5338 5335 5337 5337 5332 5331 5331 5328 5326 5325 5326 5327 5325 5324 5325 5324 5324 5324 5324 5323 5322 5320 5317 5314 5312 5309 5305
5394 5390 5387 5384 5380 5377 5373 5367 5361 5357 5354 5350 5346 5342 5340 5339 5336 5333 5329 5327 5330 5328 5327 5324 5322 5322 5323 5324 5322 5320 5319 5320 5319 5319 5319 5318 5318 5317 5315 5312 5310 5308 5304 5300
5382 5379 5375 5371 5368 5366 5362 5356 5351 5347 5344 5342 5338 5336 5333 5332 5328 5325 5327 5326 5322 5322 5321 5318 5318 5319 5320 5318 5315 5314 5315 5315 5315 5315 5314 5313 5313 5312 5310 5308 5306 5303 5299 5296
5370 5366 5362 5359 5353 5349 5349 5349 5344 5341 5337 5334 5331 5328 5325 5324 5324 5321 5319 5319 5318 5317 5315 5313 5314 5315 5315 5312 5310 5310 5310 5311 5311 5310 5309 5309 5308 5307 5306 5304 5302 5299 5295 5292
5356 5352 5348 5344 5341 5341 5340 5339 5336 5332 5329 5328 5326 5324 5321 5318 5316 5317 5314 5312 5312 5311 5309 5309 5309 5309 5308 5306 5306 5306 5306 5306 5306 5306 5305 5305 5304 5304 5303 5301 5298 5295 5292 5289
5343 5341 5339 5336 5333 5332 5330 5328 5326 5326 5324 5323 5323 5320 5317 5314 5312 5310 5308 5307 5305 5305 5304 5303 5303 5303 5302 5302 5302 5302 5302 5302 5302 5301 5301 5301 5301 5300 5299 5297 5295 5292 5290 5286
5332 5330 5328 5326 5325 5322 5320 5318 5317 5317 5316 5314 5315 5314 5311 5309 5306 5304 5303 5302 5301 5300 5299 5299 5298 5298 5298 5298 5298 5298 5298 5298 5298 5297 5297 5297 5297 5297 5296 5294 5292 5290 5287 5284